Location: Newark
(49.8969°N, 3.3422°E)
Time: 21:24:38
(UTC+00:00)

SR - Visible Passes

Search period start: 22 January 2020 00:00
Search period end: 01 February 2020 00:00
Orbit: 574 x 882 km, 66.7° (Epoch: 22 January)

Date Brightness Start Highest point End Pass type
(mag) Time Alt. Az. Time Alt. Az. Time Alt. Az.
22 Jan ? 03:32:38 14° NNE 03:32:38 14° NNE 03:34:36 10° NE visible
22 Jan ? 05:12:03 14° NNW 05:15:40 23° NNE 05:20:01 10° E visible
22 Jan ? 06:53:06 10° NW 06:58:50 71° NE 07:04:05 10° SE visible
23 Jan ? 04:23:44 17° N 04:25:19 18° NNE 04:29:08 10° ENE visible
23 Jan ? 06:03:26 10° NNW 06:08:56 45° NE 06:14:02 10° ESE visible
24 Jan ? 03:35:25 16° NNE 03:35:25 16° NNE 03:38:14 10° NE visible
24 Jan ? 05:14:50 14° NNW 05:18:52 30° NE 05:23:38 10° E visible
24 Jan ? 06:55:53 10° NW 07:01:34 73° WSW 07:06:44 10° SSE visible
25 Jan ? 02:47:09 11° NNE 02:47:09 11° NNE 02:47:32 10° NE visible
25 Jan ? 04:26:33 19° N 04:28:39 22° NNE 04:32:55 10° ENE visible
25 Jan ? 06:06:09 10° NNW 06:11:51 68° NE 06:17:04 10° SE visible
26 Jan ? 03:38:19 18° NNE 03:38:19 18° NNE 03:42:02 10° ENE visible
26 Jan ? 05:17:44 16° NNW 05:21:57 43° NE 05:26:59 10° ESE visible
27 Jan ? 02:50:07 13° NE 02:50:07 13° NE 02:51:08 10° NE visible
27 Jan ? 04:29:32 22° N 04:31:52 29° NNE 04:36:33 10° E visible
27 Jan ? 06:08:57 10° NW 06:14:36 77° WSW 06:19:45 10° SSE visible
28 Jan ? 03:41:24 22° NNE 03:41:37 22° NNE 03:45:49 10° ENE visible
28 Jan ? 05:20:49 19° NNW 05:24:52 65° NE 05:30:03 10° SE visible
29 Jan ? 02:53:19 15° NE 02:53:19 15° NE 02:54:55 10° ENE visible
29 Jan ? 04:32:45 29° N 04:34:57 41° NE 04:39:56 10° ESE visible
29 Jan ? 06:12:11 11° NW 06:17:10 46° WSW 06:22:02 10° S visible
30 Jan ? 03:44:45 28° NNE 03:44:51 28° NNE 03:49:28 10° E visible
30 Jan ? 05:24:11 24° NW 05:27:38 80° SW 05:32:46 10° SSE visible
31 Jan ? 02:56:51 17° NE 02:56:51 17° NE 02:58:43 10° ENE visible
31 Jan ? 04:36:17 43° N 04:37:53 62° NE 04:43:02 10° SE visible
31 Jan ? 06:15:44 13° WNW 06:19:34 27° WSW 06:23:48 10° SSW visible
